LU3MCV-13 Weather Reports


time (UTC)temp
C
wind
direction
speed
KPH
gust
KPH
rain 1hr
cm
rain 24hr
cm
rain mn
cm
humidity
%
barometer
mb
20260509212855 13 0 0.0 0.0 0.00 0.00 0.00 13 942.0
20260509211354 13 0 0.0 0.0 0.00 0.00 0.00 13 941.8
20260509205854 15 0 0.0 0.0 0.00 0.00 0.00 13 941.7
20260509204355 15 0 0.0 0.0 0.00 0.00 0.00 13 941.8
20260509202855 15 0 0.0 0.0 0.00 0.00 0.00 13 941.7
20260509201355 15 0 0.0 0.0 0.00 0.00 0.00 13 942.0
20260509195854 15 0 0.0 0.0 0.00 0.00 0.00 13 942.2
20260509194354 15 0 0.0 0.0 0.00 0.00 0.00 13 942.4
20260509192854 15 0 0.0 0.0 0.00 0.00 0.00 13 942.5
20260509191354 15 0 0.0 0.0 0.00 0.00 0.00 13 942.7
20260509185854 15 0 0.0 0.0 0.00 0.00 0.00 13 942.7
20260509184355 15 0 0.0 0.0 0.00 0.00 0.00 13 943.1
20260509182855 13 0 0.0 0.0 0.00 0.00 0.00 13 943.5
20260509181355 13 0 0.0 0.0 0.00 0.00 0.00 10 943.7
20260509175855 13 0 0.0 0.0 0.00 0.00 0.00 10 944.0
20260509174355 13 0 0.0 0.0 0.00 0.00 0.00 10 944.1
20260509172854 13 0 0.0 0.0 0.00 0.00 0.00 10 944.3
20260509171354 12 0 0.0 0.0 0.00 0.00 0.00 15 944.4
20260509165854 12 0 0.0 0.0 0.00 0.00 0.00 15 944.7
20260509164355 12 0 0.0 0.0 0.00 0.00 0.00 16 944.9
20260509162855 12 0 0.0 0.0 0.00 0.00 0.00 16 945.3
20260509161355 12 0 0.0 0.0 0.00 0.00 0.00 17 945.6
20260509155854 11 0 0.0 0.0 0.00 0.00 0.00 18 945.9
20260509154354 11 0 0.0 0.0 0.00 0.00 0.00 18 946.1
20260509152854 11 0 0.0 0.0 0.00 0.00 0.00 20 946.3
20260509151354 10 0 0.0 0.0 0.00 0.00 0.00 20 946.3
20260509145854 10 0 0.0 0.0 0.00 0.00 0.00 20 946.5
20260509144355 10 0 0.0 0.0 0.00 0.00 0.00 20 946.6
20260509142855 10 0 0.0 0.0 0.00 0.00 0.00 20 946.6
20260509141354 10 0 0.0 0.0 0.00 0.00 0.00 20 946.7
20260509135854 8 0 0.0 0.0 0.00 0.00 0.00 21 946.7
20260509134355 8 0 0.0 0.0 0.00 0.00 0.00 21 946.8
20260509132855 8 0 0.0 0.0 0.00 0.00 0.00 22 946.6
20260509131354 8 0 0.0 0.0 0.00 0.00 0.00 22 946.6
20260509125854 7 0 0.0 0.0 0.00 0.00 0.00 23 946.5
20260509124354 7 0 0.0 0.0 0.00 0.00 0.00 23 946.3
20260509122855 7 0 0.0 0.0 0.00 0.00 0.00 23 946.0
20260509121354 7 0 0.0 0.0 0.00 0.00 0.00 24 945.7
20260509115854 7 0 0.0 0.0 0.00 0.00 0.00 24 945.5
20260509114354 7 0 0.0 0.0 0.00 0.00 0.00 25 945.3
20260509112854 7 0 0.0 0.0 0.00 0.00 0.00 25 945.2
20260509111354 7 0 0.0 0.0 0.00 0.00 0.00 25 944.9
20260509111348 7 0 0.0 0.0 0.00 0.00 0.00 25 944.8
20260509105848 7 0 0.0 0.0 0.00 0.00 0.00 25 944.8
20260509104348 7 0 0.0 0.0 0.00 0.00 0.00 25 944.6
20260509102848 7 0 0.0 0.0 0.00 0.00 0.00 25 944.5
20260509101348 7 0 0.0 0.0 0.00 0.00 0.00 25 944.6
20260509095848 7 0 0.0 0.0 0.00 0.00 0.00 25 944.6
20260509094348 7 0 0.0 0.0 0.00 0.00 0.00 25 944.2
20260509092848 7 0 0.0 0.0 0.00 0.00 0.00 25 944.0
20260509091348 7 0 0.0 0.0 0.00 0.00 0.00 25 943.9
20260509085848 7 0 0.0 0.0 0.00 0.00 0.00 24 943.6
20260509084348 7 0 0.0 0.0 0.00 0.00 0.00 25 943.5
20260509082847 7 0 0.0 0.0 0.00 0.00 0.00 24 943.6
20260509081348 7 0 0.0 0.0 0.00 0.00 0.00 24 943.5
20260509075847 7 0 0.0 0.0 0.00 0.00 0.00 25 943.3
20260509074348 7 0 0.0 0.0 0.00 0.00 0.00 25 943.5
20260509072848 7 0 0.0 0.0 0.00 0.00 0.00 25 943.6
20260509071347 7 0 0.0 0.0 0.00 0.00 0.00 25 943.3
20260509065848 7 0 0.0 0.0 0.00 0.00 0.00 25 943.4
20260509064348 7 0 0.0 0.0 0.00 0.00 0.00 25 943.4
20260509062848 7 0 0.0 0.0 0.00 0.00 0.00 25 943.3
20260509061348 8 0 0.0 0.0 0.00 0.00 0.00 25 943.3
20260509054348 10 0 0.0 0.0 0.00 0.00 0.00 22 943.3
20260509052847 10 0 0.0 0.0 0.00 0.00 0.00 22 943.1
20260509051347 8 0 0.0 0.0 0.00 0.00 0.00 25 942.8
20260509045847 8 0 0.0 0.0 0.00 0.00 0.00 25 942.7
20260509044347 8 0 0.0 0.0 0.00 0.00 0.00 25 942.2
20260509042847 8 0 0.0 0.0 0.00 0.00 0.00 25 941.9
20260509041347 8 0 0.0 0.0 0.00 0.00 0.00 25 941.7
20260509035847 8 0 0.0 0.0 0.00 0.00 0.00 25 941.8
20260509034347 7 0 0.0 0.0 0.00 0.00 0.00 25 942.0
20260509032847 7 0 0.0 0.0 0.00 0.00 0.00 25 941.9
20260509031348 8 0 0.0 0.0 0.00 0.00 0.00 25 942.1
20260509025847 11 0 0.0 0.0 0.00 0.00 0.00 21 942.3
20260509024348 11 0 0.0 0.0 0.00 0.00 0.00 22 942.1
20260509022847 11 0 0.0 0.0 0.00 0.00 0.00 23 941.8
20260509021347 11 0 0.0 0.0 0.00 0.00 0.00 22 941.8
20260509015847 11 0 0.0 0.0 0.00 0.00 0.00 22 941.8
20260509014347 11 0 0.0 0.0 0.00 0.00 0.00 22 941.6
20260509012847 11 0 0.0 0.0 0.00 0.00 0.00 21 941.2
20260509011347 12 0 0.0 0.0 0.00 0.00 0.00 22 941.0
20260509004347 11 0 0.0 0.0 0.00 0.00 0.00 23 940.6
20260509002847 11 0 0.0 0.0 0.00 0.00 0.00 24 940.0
20260509001347 12 0 0.0 0.0 0.00 0.00 0.00 21 940.1
20260508235847 12 0 0.0 0.0 0.00 0.00 0.00 21 939.6
20260508234347 12 0 0.0 0.0 0.00 0.00 0.00 20 939.3
20260508232847 11 0 0.0 0.0 0.00 0.00 0.00 21 938.7
20260508231347 11 0 0.0 0.0 0.00 0.00 0.00 21 938.0
20260508225847 11 0 0.0 0.0 0.00 0.00 0.00 22 937.8
20260508224347 11 0 0.0 0.0 0.00 0.00 0.00 22 937.2
20260508222847 11 0 0.0 0.0 0.00 0.00 0.00 23 936.7
20260508221347 11 0 0.0 0.0 0.00 0.00 0.00 22 936.1
20260508215847 11 0 0.0 0.0 0.00 0.00 0.00 23 935.4
20260508214347 11 0 0.0 0.0 0.00 0.00 0.00 23 934.9